Miscellaneous Local Product
Issued by NWS Hastings, NE

Home | Current Version | Previous Version | Graphics & Text | Print | Product List | Glossary On
Versions: 1 2 3 4 5 6 7 8 9 10 11 12 13 14 15 16 17 18 19 20 21 22 23 24 25 26 27 28 29 30 31 32 33 34 35 36 37 38 39 40 41 42 43 44 45 46 47 48 49 50
000
AXUS43 KGID 182302
MISGRI

GID CWA HOURLY WEATHER ROUNDUP
NATIONAL WEATHER SERVICE HASTINGS NE
600 PM CDT FRI APR 18 2014

NOTE: "FAIR" INDICATES FEW OR NO CLOUDS BELOW 12,000 FEET WITH NO
SIGNIFICANT WEATHER AND/OR OBSTRUCTIONS TO VISIBILITY.

...SOUTH CENTRAL NEBRASKA...

CITY           SKY/WX    TMP DP  RH WIND       PRES   REMARKS
GRAND ISLAND   CLOUDY    70  41  34 S23G35    30.00F
HASTINGS       CLOUDY    69  39  33 S23G30    30.00F
KEARNEY        CLOUDY    70  43  37 S25       29.98F
ORD            CLOUDY    70  41  34 S26G36    29.93F
YORK           PTSUNNY   68  41  37 S21G29    30.03F
AURORA         PTSUNNY   69  42  36 S18G26    30.02F
LEXINGTON      CLOUDY    72  42  34 S26G33    29.94F
HOLDREGE       CLOUDY    70  40  34 S23G32    29.97S
HEBRON         MOSUNNY   70  39  32 S20G26    30.05S

...NEBRASKA PANHANDLE...

CITY           SKY/WX    TMP DP  RH WIND       PRES   REMARKS
CHADRON        CLOUDY    80  39  23 S24G31    29.67F
ALLIANCE       CLOUDY    77  32  19 S22G32    29.77F
SCOTTSBLUFF    PTSUNNY   81  33  17 S22G29    29.76F
SIDNEY         PTSUNNY   78  27  15 S22       29.85F

...WESTERN AND NORTH CENTRAL NEBRASKA...

CITY           SKY/WX    TMP DP  RH WIND       PRES   REMARKS
VALENTINE      CLOUDY    74  37  26 S31G39    29.77F
AINSWORTH      CLOUDY    70  41  34 S30G39    29.83S
ONEILL         CLOUDY    69  36  30 S21G39    29.91F
BROKEN BOW     CLOUDY    68  42  38 S24G39    29.92F
IMPERIAL       MOSUNNY   77  36  22 S25G33    29.85F
NORTH PLATTE   MOSUNNY   72  42  34 S22G31    29.87F
MCCOOK         MOSUNNY   72  44  36 S23G36    29.92F

...EASTERN NEBRASKA...

CITY           SKY/WX    TMP DP  RH WIND       PRES   REMARKS
NORFOLK        MOSUNNY   68  39  34 S22G36    29.99F
SO SIOUX CITY  MOSUNNY   70  37  29 S23G31    30.05F
TEKAMAH        MOSUNNY   71  37  28 S25       30.07F
COLUMBUS       MOSUNNY   66  41  39 S20G28    30.04S
ALBION         PTSUNNY   67  39  35 S24G32    29.99F
OMAHA EPPLEY   MOSUNNY   69  37  30 S20       30.09F
OFFUTT AFB     SUNNY     69  39  34 SE16      30.09F
MILLARD        SUNNY     68  38  33 S20       30.09F
LINCOLN        SUNNY     70  39  32 S21G30    30.07F
NEBRASKA CITY  SUNNY     69  38  33 S20G25    30.12F
BEATRICE       SUNNY     68  39  34 S15G28    30.08F
FALLS CITY     NOT AVBL

...NORTHERN KANSAS...

CITY           SKY/WX    TMP DP  RH WIND       PRES   REMARKS
GOODLAND       SUNNY     75  39  27 S28G33    29.91F
HILL CITY      SUNNY     74  41  30 S23G31    29.97F
PHILLIPSBURG   SUNNY     73  37  27 S22G30    29.98F
SMITH CENTER   SUNNY     70  41  35 S24G31    30.01F
BELOIT         SUNNY     72  39  30 S20G25    30.03F
HAYS           SUNNY     72  45  37 S26G33    30.01F
RUSSELL        SUNNY     70  42  36 S24       30.02F
CONCORDIA      SUNNY     70  41  34 S21G29    30.06F
SALINA         MOSUNNY   71  42  35 S21G30    30.08F
TOPEKA         MOSUNNY   70  42  36 SE13      30.15F



USA.gov is the U.S. government's official web portal to all federal, state and local government web resources and services.